Location: Brabourne
(51.1333°N, 1.0000°E)
Time: 08:15:21
(UTC+00:00)

Cosmos 1271 Rocket - Pass Details

Date: 20 June 2021
Orbit: 498 x 544 km, 81.2° (Epoch: 31 July)

Event Time Altitude Azimuth Distance (km) Brightness Sun altitude
Rises 02:11:13 0° 352° (N) 2,603 7.2 -9.8°
Reaches altitude 10° 02:13:24 10° 358° (N) 1,715 6.3 -9.7°
Maximum altitude 02:17:02 46° 73° (ENE) 685 3.7 -9.4°
Drops below altitude 10° 02:20:39 10° 148° (SSE) 1,709 5.1 -9.1°
Sets 02:22:50 0° 154° (SSE) 2,593 6.0 -8.9°
